KA5J Weather Reports


Display with metric or nautical units.
time (UTC)temp
F
wind
direction
speed
MPH
gust
MPH
rain 1hr
in
rain 24hr
in
rain mn
in
humidity
%
barometer
mb
20260510174540 62 0 2.0 10.0 0.00 0.00 0.00 75 1019.3
20260510174027 62 11 3.0 9.0 0.00 0.00 0.00 74 1019.3
20260510173527 63 60 4.0 9.0 0.00 0.00 0.00 73 1019.5
20260510173038 63 44 2.0 9.0 0.00 0.00 0.00 72 1019.8
20260510172526 63 104 1.0 9.0 0.00 0.00 0.00 71 1020.0
20260510172028 64 352 3.0 9.0 0.00 0.00 0.00 69 1020.2
20260510171558 64 52 3.0 9.0 0.00 0.00 0.00 69 1020.1
20260510171026 64 56 2.0 9.0 0.00 0.00 0.00 69 1020.0
20260510170526 64 55 3.0 9.0 0.00 0.00 0.00 68 1020.0
20260510170038 64 329 2.0 7.0 0.00 0.00 0.00 70 1019.9
20260510165526 64 359 2.0 9.0 0.00 0.00 0.00 70 1019.6
20260510165029 65 333 3.0 11.0 0.00 0.00 0.00 70 1019.5
20260510164541 65 322 3.0 11.0 0.00 0.00 0.00 71 1019.5
20260510164027 65 321 2.0 9.0 0.00 0.00 0.00 73 1019.3
20260510163526 65 13 4.0 9.0 0.00 0.00 0.00 73 1019.2
20260510163043 65 80 4.0 7.0 0.00 0.00 0.00 74 1018.8
20260510162528 65 44 1.0 5.0 0.00 0.00 0.00 75 1018.7
20260510162029 64 50 1.0 5.0 0.00 0.00 0.00 75 1018.7
20260510161539 64 0 1.0 5.0 0.00 0.00 0.00 75 1018.3
20260510161026 64 336 0.0 5.0 0.00 0.00 0.00 76 1018.5
20260510160527 64 12 1.0 6.0 0.00 0.00 0.00 76 1018.5
20260510160048 64 0 0.0 6.0 0.00 0.00 0.00 76 1018.4
20260510155526 64 85 2.0 7.0 0.00 0.00 0.00 76 1018.0
20260510155026 64 327 1.0 8.0 0.00 0.00 0.00 76 1017.9
20260510154558 64 56 2.0 9.0 0.00 0.00 0.00 76 1017.6
20260510154028 64 31 4.0 9.0 0.00 0.00 0.00 76 1017.2
20260510153528 64 5 2.0 8.0 0.00 0.00 0.00 77 1017.1
20260510153048 64 62 1.0 8.0 0.00 0.00 0.00 77 1017.2
20260510152527 64 32 2.0 6.0 0.00 0.00 0.00 76 1017.2
20260510152027 64 324 1.0 4.0 0.00 0.00 0.00 76 1017.2
20260510151538 65 329 1.0 4.0 0.00 0.00 0.00 77 1017.0
20260510151027 65 44 0.0 3.0 0.00 0.00 0.00 78 1016.9
20260510150530 65 38 0.0 3.0 0.00 0.00 0.00 78 1016.8
20260510150056 64 311 0.0 3.0 0.00 0.00 0.00 78 1016.9
20260510145527 64 316 0.0 4.0 0.00 0.00 0.00 78 1016.7
20260510145028 64 68 0.0 4.0 0.00 0.00 0.00 80 1016.4
20260510144604 64 307 0.0 3.0 0.00 0.00 0.00 82 1016.3
20260510144031 64 0 0.0 1.0 0.00 0.00 0.00 82 1016.5
20260510143530 64 5 0.0 1.0 0.00 0.00 0.00 82 1016.5
20260510143041 64 0 0.0 2.0 0.00 0.00 0.00 81 1016.5
20260510142532 64 0 0.0 4.0 0.00 0.00 0.00 81 1016.2
20260510142027 64 172 0.0 4.0 0.00 0.00 0.00 81 1016.1
20260510141546 64 12 2.0 6.0 0.00 0.00 0.00 80 1016.3
20260510141030 64 321 1.0 6.0 0.00 0.00 0.00 82 1016.5
20260510140527 64 4 3.0 6.0 0.00 0.00 0.00 82 1016.8
20260510140039 64 79 1.0 4.0 0.00 0.00 0.00 82 1016.4
20260510135526 64 324 0.0 3.0 0.00 0.01 0.00 83 1016.5
20260510135028 64 0 0.0 3.0 0.00 0.01 0.00 82 1016.5
20260510134549 64 20 1.0 3.0 0.00 0.01 0.00 82 1016.6
20260510134029 64 304 0.0 2.0 0.00 0.01 0.00 83 1016.7
20260510133527 63 195 0.0 0.0 0.00 0.01 0.00 84 1016.5
20260510133043 63 0 0.0 0.0 0.00 0.01 0.00 85 1016.6
20260510132527 63 0 0.0 0.0 0.00 0.01 0.00 85 1016.8
20260510132027 63 0 0.0 0.0 0.00 0.01 0.00 85 1017.0
20260510131539 63 0 0.0 0.0 0.00 0.01 0.00 85 1016.7
20260510131028 63 0 0.0 0.0 0.00 0.01 0.00 84 1016.7
20260510130528 63 0 0.0 0.0 0.00 0.01 0.00 84 1016.8
20260510130042 63 0 0.0 1.0 0.00 0.01 0.00 85 1016.7
20260510125527 63 0 0.0 1.0 0.00 0.01 0.00 85 1016.8
20260510125030 63 0 0.0 0.0 0.00 0.01 0.00 86 1016.8
20260510124541 63 0 0.0 0.0 0.00 0.01 0.00 85 1016.4
20260510124027 63 0 0.0 0.0 0.00 0.01 0.00 85 1016.2
20260510123528 63 0 0.0 0.0 0.00 0.01 0.00 84 1015.8
20260510123038 63 0 0.0 0.0 0.00 0.01 0.00 84 1015.7
20260510122529 63 0 0.0 0.0 0.00 0.01 0.00 84 1015.5
20260510122027 63 0 0.0 0.0 0.00 0.01 0.00 84 1015.4
20260510121543 63 0 0.0 0.0 0.00 0.01 0.00 84 1015.1
20260510121027 63 0 0.0 0.0 0.00 0.01 0.00 84 1015.0
20260510120528 63 0 0.0 1.0 0.00 0.01 0.00 84 1015.0
20260510120043 63 0 0.0 1.0 0.00 0.01 0.00 84 1014.8
20260510115527 62 0 0.0 1.0 0.00 0.01 0.00 85 1014.4
20260510115030 62 101 0.0 1.0 0.00 0.01 0.00 84 1014.3
20260510114542 62 101 0.0 1.0 0.00 0.01 0.00 84 1014.1
20260510114029 62 0 0.0 0.0 0.00 0.01 0.00 84 1014.1
20260510113528 62 0 0.0 1.0 0.00 0.01 0.00 83 1014.0
20260510113041 62 0 0.0 1.0 0.00 0.01 0.00 83 1013.7
20260510112528 62 0 0.0 1.0 0.00 0.01 0.00 83 1013.6
20260510112033 62 0 0.0 0.0 0.00 0.01 0.00 83 1013.6
20260510111546 63 0 0.0 0.0 0.00 0.01 0.00 82 1013.7
20260510111030 63 0 0.0 0.0 0.00 0.01 0.00 81 1013.5
20260510110530 63 0 0.0 0.0 0.00 0.01 0.00 80 1013.4
20260510110039 64 0 0.0 0.0 0.00 0.01 0.00 79 1013.5
20260510105529 64 0 0.0 1.0 0.00 0.01 0.00 79 1013.3
20260510105031 64 0 0.0 1.0 0.00 0.01 0.00 78 1013.1
20260510104555 65 0 0.0 1.0 0.00 0.01 0.00 77 1013.2
20260510104029 65 0 0.0 0.0 0.00 0.01 0.00 76 1013.1
20260510103530 65 0 0.0 1.0 0.00 0.01 0.00 76 1013.0
20260510103043 65 0 0.0 2.0 0.00 0.01 0.00 75 1013.0
20260510102530 66 0 0.0 2.0 0.00 0.01 0.00 75 1013.1
20260510102030 66 0 0.0 1.0 0.00 0.01 0.00 75 1013.0
20260510101549 66 0 0.0 6.0 0.00 0.01 0.00 74 1013.0
20260510101028 66 0 0.0 6.0 0.00 0.01 0.00 73 1012.9
20260510100530 66 86 0.0 1.0 0.00 0.01 0.00 72 1013.0
20260510100051 66 0 0.0 2.0 0.00 0.01 0.00 71 1013.0
20260510095533 66 0 0.0 4.0 0.00 0.01 0.00 71 1012.9
20260510095030 66 85 0.0 5.0 0.00 0.01 0.00 70 1012.7
20260510094541 66 88 1.0 5.0 0.00 0.01 0.00 70 1012.7
20260510094029 66 83 2.0 5.0 0.00 0.01 0.00 71 1012.6
20260510093530 66 81 2.0 4.0 0.00 0.01 0.00 72 1012.5
20260510093044 65 85 0.0 3.0 0.00 0.01 0.00 73 1012.6
20260510092529 65 0 0.0 1.0 0.00 0.01 0.00 73 1012.5
20260510092030 66 0 0.0 1.0 0.00 0.01 0.00 72 1012.4
20260510091543 66 0 0.0 1.0 0.00 0.01 0.00 71 1012.4
20260510091029 66 0 0.0 1.0 0.00 0.01 0.00 70 1012.4
20260510090530 67 0 0.0 1.0 0.00 0.01 0.00 70 1012.4
20260510090043 67 0 0.0 0.0 0.00 0.01 0.00 70 1012.5
20260510085528 67 0 0.0 2.0 0.00 0.01 0.00 69 1012.3
20260510085028 67 0 0.0 4.0 0.00 0.01 0.00 69 1012.0
20260510084556 67 44 1.0 4.0 0.00 0.01 0.00 68 1011.8
20260510084029 67 1 1.0 4.0 0.00 0.01 0.00 68 1011.5
20260510083534 68 62 0.0 2.0 0.00 0.01 0.00 68 1011.5
20260510083058 68 359 0.0 2.0 0.00 0.01 0.00 67 1011.1
20260510082529 68 0 0.0 4.0 0.00 0.01 0.00 67 1010.9
20260510082026 68 0 1.0 7.0 0.00 0.01 0.00 67 1010.7
20260510081559 68 0 1.0 7.0 0.00 0.01 0.00 67 1010.4
20260510081027 68 358 4.0 7.0 0.00 0.01 0.00 68 1010.5
20260510080527 68 51 2.0 8.0 0.00 0.01 0.00 69 1010.5
20260510080037 68 24 3.0 8.0 0.00 0.01 0.00 69 1010.0
20260510075530 68 349 3.0 7.0 0.00 0.01 0.00 69 1009.9
20260510075033 68 24 2.0 4.0 0.00 0.01 0.00 69 1009.7
20260510074544 68 0 0.0 8.0 0.00 0.01 0.00 69 1009.4
20260510074030 68 303 2.0 10.0 0.00 0.01 0.00 67 1008.8
20260510073530 68 191 2.0 12.0 0.00 0.01 0.00 67 1008.2
20260510073049 68 67 5.0 12.0 0.00 0.01 0.00 67 1008.8
20260510072527 67 162 3.0 12.0 0.00 0.01 0.00 71 1009.5
20260510072033 67 63 4.0 14.0 0.00 0.01 0.00 72 1011.1
20260510071542 66 0 5.0 14.0 0.00 0.01 0.00 74 1011.2
20260510071029 66 297 2.0 16.0 0.00 0.01 0.00 74 1010.9
20260510070532 67 38 3.0 16.0 0.00 0.01 0.00 72 1011.1
20260510070052 67 74 4.0 16.0 0.00 0.01 0.00 70 1011.0
20260510065530 68 214 5.0 15.0 0.00 0.01 0.00 67 1010.3
20260510065032 68 240 4.0 12.0 0.00 0.01 0.00 65 1010.4
20260510064548 69 0 1.0 5.0 0.00 0.01 0.00 63 1011.9
20260510064029 69 212 0.0 6.0 0.00 0.01 0.00 61 1013.6
20260510063530 70 290 2.0 6.0 0.00 0.01 0.00 60 1014.0
20260510063038 70 193 1.0 6.0 0.00 0.01 0.00 61 1014.0
20260510062530 70 280 0.0 3.0 0.00 0.01 0.00 65 1014.0
20260510062029 70 285 0.0 2.0 0.00 0.01 0.00 66 1013.6
20260510061555 70 215 0.0 1.0 0.00 0.01 0.00 63 1013.3
20260510061030 71 0 0.0 1.0 0.00 0.01 0.00 61 1013.2
20260510060526 71 0 0.0 2.0 0.00 0.01 0.00 60 1013.2
20260510060047 71 0 0.0 3.0 0.00 0.01 0.00 59 1013.3
20260510055530 71 72 0.0 3.0 0.00 0.01 0.00 60 1013.2
20260510055030 71 312 0.0 2.0 0.00 0.01 0.00 60 1013.2
20260510054542 71 0 0.0 2.0 0.00 0.01 0.00 59 1013.2
20260510054029 71 94 1.0 2.0 0.00 0.01 0.00 59 1013.4
20260510053526 71 0 0.0 1.0 0.00 0.01 0.00 59 1013.4
20260510053052 71 89 0.0 1.0 0.00 0.01 0.00 59 1013.6
20260510052528 71 0 0.0 2.0 0.00 0.01 0.00 59 1013.6
20260510052031 71 0 0.0 2.0 0.00 0.01 0.00 59 1013.7
20260510051543 71 0 1.0 4.0 0.00 0.01 0.00 59 1013.6
20260510051031 71 66 1.0 4.0 0.00 0.01 0.00 60 1013.5
20260510050527 70 0 1.0 4.0 0.00 0.01 0.00 62 1013.5
20260510050042 69 0 0.0 2.0 0.00 0.01 0.00 65 1013.2
20260510045529 69 0 0.0 2.0 0.00 0.02 0.01 68 1012.9
20260510045029 68 54 0.0 1.0 0.00 0.02 0.01 70 1012.4
20260510044538 68 0 0.0 1.0 0.00 0.02 0.01 72 1012.3
20260510044030 68 0 0.0 0.0 0.00 0.02 0.01 73 1012.1
20260510043529 68 0 0.0 0.0 0.00 0.02 0.01 73 1012.1
20260510043042 67 0 0.0 0.0 0.00 0.02 0.01 72 1012.0
20260510042530 67 0 0.0 0.0 0.00 0.02 0.01 72 1012.0
20260510042033 67 0 0.0 0.0 0.00 0.02 0.01 72 1011.9
20260510041541 68 0 0.0 0.0 0.00 0.02 0.01 71 1011.8
20260510041034 68 0 0.0 0.0 0.00 0.02 0.01 71 1011.6
20260510040530 68 0 0.0 0.0 0.00 0.02 0.01 70 1011.7
20260510040047 68 0 0.0 0.0 0.00 0.02 0.01 69 1011.7
20260510035530 68 0 0.0 0.0 0.00 0.02 0.01 68 1011.6
20260510035029 68 0 0.0 0.0 0.00 0.02 0.01 69 1011.7
20260510034538 68 0 0.0 0.0 0.00 0.02 0.01 69 1011.5
20260510034030 68 0 0.0 0.0 0.00 0.02 0.01 66 1011.4
20260510033529 68 0 0.0 0.0 0.00 0.02 0.01 66 1011.5
20260510033039 68 0 0.0 0.0 0.00 0.02 0.01 67 1011.4
20260510032529 69 0 0.0 0.0 0.00 0.02 0.01 67 1011.4
20260510032033 69 0 0.0 0.0 0.00 0.02 0.01 66 1011.3
20260510031551 69 0 0.0 0.0 0.00 0.02 0.01 67 1011.5
20260510031029 69 0 0.0 0.0 0.00 0.02 0.01 67 1011.5
20260510030527 69 0 0.0 0.0 0.00 0.02 0.01 66 1011.4
20260510030043 69 0 0.0 0.0 0.00 0.02 0.01 65 1011.4
20260510025529 69 0 0.0 0.0 0.00 0.02 0.01 64 1011.4
20260510025029 70 0 0.0 0.0 0.00 0.02 0.01 61 1011.2
20260510024541 70 0 0.0 0.0 0.00 0.02 0.01 60 1011.2
20260510024028 70 0 0.0 0.0 0.00 0.02 0.01 59 1011.0
20260510023529 71 0 0.0 0.0 0.00 0.02 0.01 59 1010.9
20260510023044 71 0 0.0 0.0 0.00 0.02 0.01 58 1010.6
20260510022528 71 0 0.0 0.0 0.00 0.02 0.01 59 1010.1
20260510022029 71 0 0.0 0.0 0.00 0.02 0.01 60 1009.9
20260510021542 72 0 0.0 0.0 0.00 0.02 0.01 59 1009.8
20260510021029 72 0 0.0 0.0 0.00 0.02 0.01 58 1009.6
20260510020528 73 0 0.0 0.0 0.00 0.02 0.01 56 1009.6
20260510020038 73 0 0.0 0.0 0.00 0.02 0.01 55 1009.5
20260510015531 73 0 0.0 0.0 0.00 0.08 0.01 55 1009.3
20260510015029 74 0 0.0 0.0 0.00 0.08 0.01 54 1009.3
20260510014545 74 0 0.0 0.0 0.00 0.08 0.01 54 1009.2
20260510014029 74 0 0.0 0.0 0.00 0.08 0.01 54 1009.1
20260510013529 75 0 0.0 0.0 0.00 0.08 0.01 54 1009.1
20260510013048 76 0 0.0 0.0 0.00 0.08 0.01 49 1009.1
20260510012526 76 0 0.0 0.0 0.00 0.08 0.01 48 1009.0
20260510012030 77 0 0.0 1.0 0.00 0.08 0.01 46 1008.9
20260510011538 77 0 0.0 1.0 0.00 0.08 0.01 45 1008.9
20260510011028 78 0 0.0 1.0 0.00 0.08 0.01 44 1008.8
20260510010526 78 0 0.0 2.0 0.00 0.08 0.01 43 1008.7
20260510010042 79 0 0.0 3.0 0.00 0.08 0.01 42 1008.7
20260510005530 79 0 0.0 3.0 0.00 0.23 0.01 42 1008.7
20260510005029 80 0 0.0 2.0 0.00 0.23 0.01 40 1008.7
20260510004541 80 0 0.0 3.0 0.00 0.23 0.01 39 1008.7
20260510004029 80 144 1.0 3.0 0.00 0.23 0.01 39 1008.6
20260510003529 80 137 0.0 2.0 0.00 0.23 0.01 38 1008.5
20260510003049 81 0 0.0 3.0 0.00 0.23 0.01 38 1008.4
20260510002529 81 0 1.0 4.0 0.00 0.23 0.01 37 1008.5
20260510002027 81 0 0.0 4.0 0.00 0.23 0.01 37 1008.4
20260510001543 81 140 1.0 7.0 0.00 0.23 0.01 36 1008.5
20260510001029 81 274 1.0 7.0 0.00 0.23 0.01 36 1008.5
20260510000526 81 125 0.0 5.0 0.00 0.23 0.01 37 1008.4
20260510000046 81 0 2.0 5.0 0.00 0.23 0.01 37 1008.5
20260509235527 81 79 2.0 7.0 0.00 0.30 0.01 36 1008.5
20260509235029 82 156 2.0 7.0 0.00 0.30 0.01 35 1008.6
20260509234541 82 124 1.0 7.0 0.00 0.30 0.01 35 1008.6
20260509234030 82 92 1.0 8.0 0.00 0.30 0.01 34 1008.6
20260509233529 82 113 1.0 8.0 0.00 0.30 0.01 33 1008.6
20260509233041 82 184 1.0 5.0 0.00 0.30 0.01 31 1008.6
20260509232529 83 148 2.0 5.0 0.00 0.30 0.01 31 1008.8
20260509232029 83 86 2.0 5.0 0.00 0.30 0.01 30 1008.7
20260509231546 83 82 1.0 6.0 0.00 0.30 0.01 31 1008.8
20260509231029 83 124 1.0 6.0 0.00 0.30 0.01 33 1008.8
20260509230527 84 227 3.0 8.0 0.00 0.30 0.01 31 1008.8
20260509230045 84 0 1.0 8.0 0.00 0.30 0.01 33 1008.8
20260509225532 84 128 2.0 7.0 0.00 0.30 0.01 33 1008.9
20260509225030 85 158 1.0 6.0 0.00 0.30 0.01 34 1008.8
20260509224545 85 174 1.0 5.0 0.00 0.30 0.01 34 1008.9
20260509224028 85 184 1.0 5.0 0.00 0.30 0.01 33 1009.0
20260509223529 86 0 1.0 8.0 0.00 0.30 0.01 32 1009.0
20260509223044 86 115 1.0 8.0 0.00 0.30 0.01 32 1008.9
20260509222526 86 130 2.0 6.0 0.00 0.30 0.01 31 1008.9
20260509222026 86 0 1.0 6.0 0.00 0.30 0.01 33 1008.9
20260509221542 86 139 2.0 7.0 0.00 0.30 0.01 32 1009.0
20260509221029 86 85 2.0 7.0 0.00 0.30 0.01 31 1009.1
20260509220531 86 349 2.0 7.0 0.00 0.30 0.01 30 1009.1
20260509220046 86 210 2.0 7.0 0.00 0.30 0.01 30 1009.0
20260509215529 86 117 3.0 7.0 0.00 0.30 0.01 26 1009.1
20260509215029 87 71 2.0 6.0 0.00 0.30 0.01 26 1009.1
20260509214542 87 175 0.0 5.0 0.00 0.30 0.01 23 1009.2
20260509214031 87 19 1.0 5.0 0.00 0.30 0.01 22 1009.2
20260509213528 88 103 1.0 6.0 0.00 0.30 0.01 22 1009.2
20260509213038 88 141 2.0 6.0 0.00 0.30 0.01 19 1009.3
20260509212528 88 255 2.0 6.0 0.00 0.30 0.01 22 1009.3
20260509212032 87 158 1.0 5.0 0.00 0.30 0.01 25 1009.3
20260509211544 87 134 1.0 5.0 0.00 0.30 0.01 23 1009.4
20260509211030 88 136 2.0 5.0 0.00 0.30 0.01 22 1009.6
20260509210528 88 179 1.0 7.0 0.00 0.30 0.01 25 1009.7
20260509210047 87 127 1.0 7.0 0.00 0.30 0.01 25 1009.7
20260509205527 86 146 2.0 7.0 0.00 0.30 0.01 26 1009.8
20260509205029 87 102 1.0 5.0 0.00 0.30 0.01 25 1009.9
20260509204551 87 252 1.0 5.0 0.00 0.30 0.01 27 1009.9
20260509204029 87 160 0.0 4.0 0.00 0.30 0.01 29 1009.9
20260509203527 87 0 1.0 5.0 0.00 0.30 0.01 29 1010.0
20260509203041 86 0 1.0 5.0 0.00 0.30 0.01 29 1009.9
20260509202529 86 77 1.0 7.0 0.00 0.30 0.01 27 1010.0
20260509202029 85 113 1.0 7.0 0.00 0.30 0.01 32 1009.9
20260509201538 87 80 3.0 7.0 0.00 0.30 0.01 30 1009.9
20260509201029 87 174 2.0 7.0 0.00 0.30 0.01 27 1010.0
20260509200528 87 118 1.0 7.0 0.00 0.30 0.01 29 1010.0
20260509200043 87 150 2.0 7.0 0.00 0.30 0.01 30 1010.0
20260509195529 87 169 1.0 5.0 0.00 0.30 0.01 32 1010.2
20260509195030 87 119 0.0 5.0 0.00 0.30 0.01 32 1010.1
20260509194540 87 103 2.0 7.0 0.00 0.30 0.01 34 1010.4
20260509194031 87 127 3.0 7.0 0.00 0.30 0.01 31 1010.5
20260509193529 87 175 1.0 5.0 0.00 0.30 0.01 33 1010.4
20260509193044 87 121 2.0 5.0 0.00 0.30 0.01 32 1010.5
20260509192529 87 162 2.0 5.0 0.00 0.30 0.01 31 1010.6
20260509192032 87 0 1.0 4.0 0.00 0.30 0.01 35 1010.6
20260509191541 86 156 1.0 6.0 0.00 0.30 0.01 29 1010.5
20260509191028 87 16 1.0 6.0 0.00 0.30 0.01 28 1010.6
20260509190527 87 77 3.0 6.0 0.00 0.30 0.01 25 1010.6
20260509190042 86 165 1.0 6.0 0.00 0.30 0.01 31 1010.6
20260509185529 86 163 1.0 4.0 0.00 0.30 0.01 30 1010.5
20260509185026 85 226 0.0 4.0 0.00 0.30 0.01 32 1010.6
20260509184607 85 168 1.0 5.0 0.00 0.30 0.01 32 1010.6
20260509184028 86 324 1.0 5.0 0.00 0.30 0.01 34 1010.7
20260509183529 86 301 1.0 4.0 0.00 0.30 0.01 34 1010.7
20260509183053 85 256 1.0 4.0 0.00 0.30 0.01 36 1010.7
20260509182529 85 79 0.0 2.0 0.00 0.30 0.01 39 1010.8
20260509182031 84 105 0.0 3.0 0.00 0.30 0.01 43 1011.0
20260509181545 83 228 0.0 4.0 0.00 0.30 0.01 47 1011.0
20260509181029 83 341 0.0 4.0 0.00 0.30 0.01 46 1011.1
20260509180532 84 139 1.0 5.0 0.00 0.30 0.01 42 1011.1
20260509180038 83 214 1.0 5.0 0.00 0.30 0.01 47 1011.2
20260509175531 83 98 1.0 4.0 0.00 0.30 0.01 48 1011.3
20260509175028 82 200 0.0 3.0 0.00 0.30 0.01 50 1011.3